GW1675 Weather Reports


time (UTC)temp
F
wind
direction
speed
knots
gust
knots
rain 1hr
in
rain 24hr
in
rain mn
in
humidity
%
barometer
mb
20260906103059 88 118 4.3 7.8 0.00 0.00 0.00 69 1021.4
20260906101557 89 118 4.3 9.6 0.00 0.00 0.00 69 1021.4
20260906100057 88 118 3.5 7.8 0.00 0.00 0.00 69 1021.4
20260906094607 88 119 4.3 10.4 0.00 0.00 0.00 69 1021.2
20260906093100 90 119 6.1 9.6 0.00 0.00 0.00 70 1021.1
20260906091603 90 119 6.1 10.4 0.00 0.00 0.00 70 1021.1
20260906090101 89 119 7.0 11.3 0.00 0.00 0.00 69 1021.1
20260906084559 88 121 2.6 7.8 0.00 0.00 0.00 69 1021.0
20260906083058 87 121 4.3 6.1 0.00 0.00 0.00 69 1021.0
20260906081558 86 121 2.6 8.7 0.00 0.00 0.00 69 1020.9
20260906080054 85 121 3.5 5.2 0.00 0.00 0.00 69 1020.8
20260906074606 84 121 0.0 1.7 0.00 0.00 0.00 69 1020.7
20260906073058 83 121 0.0 1.7 0.00 0.00 0.00 69 1020.7
20260906071555 82 121 0.9 5.2 0.00 0.00 0.00 68 1020.5
20260906070056 82 121 3.5 7.8 0.00 0.00 0.00 68 1020.4
20260906064559 81 121 3.5 6.1 0.00 0.00 0.00 68 1020.3
20260906063101 81 121 2.6 4.3 0.00 0.00 0.00 68 1020.3
20260906061559 80 121 2.6 5.2 0.00 0.00 0.00 68 1020.2
20260906060055 79 121 1.7 4.3 0.00 0.00 0.00 68 1020.2
20260906054550 79 121 0.9 3.5 0.00 0.00 0.00 68 1020.1
20260906053108 79 0 0.0 0.9 0.00 0.00 0.00 68 1020.0
20260906051600 79 121 0.0 1.7 0.00 0.00 0.00 68 1019.9
20260906050056 79 121 2.6 5.2 0.00 0.00 0.00 68 1019.9
20260906044559 79 121 3.5 6.1 0.00 0.00 0.00 68 1019.7
20260906043102 78 121 4.3 7.0 0.00 0.00 0.00 68 1019.7
20260906041600 77 121 0.9 2.6 0.00 0.00 0.00 67 1019.9
20260906040053 77 121 0.9 3.5 0.00 0.00 0.00 67 1020.0
20260906034606 77 121 2.6 6.1 0.00 0.00 0.00 67 1019.8
20260906033109 77 121 2.6 4.3 0.00 0.00 0.00 67 1019.9
20260906031553 78 121 1.7 6.1 0.00 0.00 0.00 67 1019.9
20260906024601 78 121 4.3 8.7 0.00 0.00 0.00 67 1020.1
20260906023057 78 121 4.3 7.0 0.00 0.00 0.00 67 1020.2
20260906021558 77 121 1.7 5.2 0.00 0.00 0.00 67 1020.2
20260906020110 77 121 2.6 5.2 0.00 0.00 0.00 67 1020.3
20260906014601 77 121 0.9 3.5 0.00 0.00 0.00 67 1020.3
20260906013108 76 121 1.7 5.2 0.00 0.00 0.00 67 1020.5
20260906011606 75 0 0.0 0.9 0.00 0.00 0.00 67 1020.5
20260906010059 75 121 0.0 0.9 0.00 0.00 0.00 67 1020.6
20260906004602 75 0 0.0 0.9 0.00 0.00 0.00 67 1020.9
20260906003103 75 0 0.0 0.0 0.00 0.00 0.00 67 1020.9
20260906001556 76 121 0.0 2.6 0.00 0.00 0.00 67 1021.0
20260906000058 76 0 0.0 1.7 0.00 0.00 0.00 67 1020.8
20260905234600 77 0 0.0 1.7 0.00 0.00 0.00 67 1020.8
20260905233057 78 0 0.0 0.0 0.00 0.00 0.00 67 1021.0
20260905231559 79 121 0.0 0.9 0.00 0.00 0.00 67 1020.7
20260905230058 78 0 0.0 0.0 0.00 0.00 0.00 67 1020.8
20260905224559 78 0 0.0 0.9 0.00 0.00 0.00 67 1020.8
20260905223059 79 121 0.0 0.9 0.00 0.00 0.00 67 1020.7
20260905221556 79 121 0.9 1.7 0.00 0.00 0.00 67 1020.8
20260905220054 80 0 0.0 0.0 0.00 0.00 0.00 68 1020.6
20260905214604 80 0 0.0 0.0 0.00 0.00 0.00 68 1020.6
20260905213059 81 0 0.0 0.9 0.00 0.00 0.00 68 1020.6
20260905211558 82 121 0.9 0.9 0.00 0.00 0.00 68 1020.5
20260905210120 82 0 0.0 0.0 0.00 0.00 0.00 68 1020.3
20260905204602 83 0 0.0 0.0 0.00 0.00 0.00 68 1020.1
20260905203101 84 0 0.0 0.9 0.00 0.00 0.00 68 1020.0
20260905201558 84 121 0.0 2.6 0.00 0.00 0.00 68 1019.9
20260905200058 83 0 0.0 1.7 0.00 0.00 0.00 68 1019.8
20260905194607 83 121 0.9 3.5 0.00 0.00 0.00 68 1019.6
20260905193057 83 121 1.7 2.6 0.00 0.00 0.00 68 1019.5
20260905191602 83 121 1.7 3.5 0.00 0.00 0.00 68 1019.4
20260905190052 84 121 0.9 1.7 0.00 0.00 0.00 68 1019.5
20260905184623 84 121 1.7 4.3 0.00 0.00 0.00 68 1019.4
20260905183101 85 121 2.6 5.2 0.00 0.00 0.00 68 1019.5
20260905181559 85 121 1.7 6.1 0.00 0.00 0.00 68 1019.5
20260905180055 85 121 2.6 5.2 0.00 0.00 0.00 69 1019.4
20260905174626 86 121 3.5 7.8 0.00 0.00 0.00 69 1019.4
20260905173106 88 121 3.5 7.8 0.00 0.00 0.00 69 1019.4
20260905171601 88 121 4.3 7.0 0.00 0.00 0.00 69 1019.3
20260905170053 89 121 2.6 7.8 0.00 0.00 0.00 69 1019.2
20260905164559 91 121 3.5 6.1 0.00 0.00 0.00 70 1019.2
20260905163107 91 121 1.7 6.1 0.00 0.00 0.00 70 1019.2
20260905161554 91 121 1.7 5.2 0.00 0.00 0.00 70 1019.0
20260905160053 91 121 0.9 5.2 0.00 0.00 0.00 70 1019.0
20260905154616 90 121 1.7 6.1 0.00 0.00 0.00 70 1019.2
20260905153106 89 121 2.6 5.2 0.00 0.00 0.00 70 1018.9
20260905151550 88 121 2.6 5.2 0.00 0.00 0.00 70 1019.3
20260905150058 89 121 0.9 6.1 0.00 0.00 0.00 70 1019.5
20260905144555 88 121 2.6 4.3 0.00 0.00 0.00 70 1019.7
20260905143100 88 121 0.9 7.0 0.00 0.00 0.00 70 1019.8
20260905141554 88 121 0.9 7.0 0.00 0.00 0.00 70 1020.1
20260905140055 87 121 3.5 7.8 0.00 0.00 0.00 70 1020.4
20260905134552 87 121 2.6 6.1 0.00 0.00 0.00 70 1020.4
20260905133059 87 121 4.3 8.7 0.00 0.00 0.00 70 1020.5
20260905131604 87 121 4.3 9.6 0.00 0.00 0.00 70 1020.5
20260905130055 88 121 4.3 7.8 0.00 0.00 0.00 70 1020.6
20260905124554 89 121 2.6 6.1 0.00 0.00 0.00 70 1020.6
20260905123103 89 121 4.3 7.0 0.00 0.00 0.00 70 1020.6
20260905121602 89 121 2.6 7.8 0.00 0.00 0.00 70 1020.7
20260905120056 89 122 2.6 6.1 0.00 0.00 0.00 70 1020.7
20260905114555 89 122 3.5 7.0 0.00 0.00 0.00 70 1020.7
20260905113101 90 122 2.6 7.0 0.00 0.00 0.00 70 1020.6
20260905111644 89 122 5.2 8.7 0.00 0.00 0.00 70 1020.6
20260905110055 89 122 5.2 7.8 0.00 0.00 0.00 70 1020.5
20260905104559 87 122 4.3 7.8 0.00 0.00 0.00 70 1020.6